| time (UTC) | temp C | wind direction | speed KPH | gust KPH | rain 1hr cm | rain 24hr cm | rain mn cm | humidity % | barometer mb |
| 20260502234323 | 15 | 55 | 0.0 | 1.6 | 0.00 | 0.00 | 0.00 | 53 | 1017.9 |
| 20260502233820 | 15 | 49 | 3.2 | 4.8 | 0.00 | 0.00 | 0.00 | 54 | 1017.9 |
| 20260502233316 | 15 | 45 | 1.6 | 1.6 | 0.00 | 0.00 | 0.00 | 54 | 1018.0 |
| 20260502232813 | 15 | 53 | 1.6 | 1.6 | 0.00 | 0.00 | 0.00 | 53 | 1017.7 |
| 20260502232309 | 15 | 66 | 1.6 | 1.6 | 0.00 | 0.00 | 0.00 | 52 | 1017.9 |
| 20260502231806 | 15 | 64 | 1.6 | 3.2 | 0.00 | 0.00 | 0.00 | 52 | 1017.9 |
| 20260502231304 | 15 | 60 | 1.6 | 1.6 | 0.00 | 0.00 | 0.00 | 52 | 1017.9 |
| 20260502230802 | 15 | 59 | 1.6 | 1.6 | 0.00 | 0.00 | 0.00 | 51 | 1017.8 |
| 20260502230300 | 16 | 52 | 1.6 | 3.2 | 0.00 | 0.00 | 0.00 | 50 | 1017.7 |
| 20260502225756 | 16 | 7 | 3.2 | 4.8 | 0.00 | 0.00 | 0.00 | 50 | 1017.9 |
| 20260502225253 | 16 | 94 | 1.6 | 3.2 | 0.00 | 0.00 | 0.00 | 49 | 1017.8 |
| 20260502224749 | 16 | 39 | 1.6 | 3.2 | 0.00 | 0.00 | 0.00 | 48 | 1017.7 |
| 20260502224246 | 16 | 63 | 0.0 | 1.6 | 0.00 | 0.00 | 0.00 | 49 | 1017.9 |
| 20260502223744 | 16 | 49 | 0.0 | 0.0 | 0.00 | 0.00 | 0.00 | 49 | 1017.6 |
| 20260502223242 | 16 | 59 | 1.6 | 1.6 | 0.00 | 0.00 | 0.00 | 51 | 1017.8 |
| 20260502222739 | 16 | 54 | 1.6 | 3.2 | 0.00 | 0.00 | 0.00 | 51 | 1017.7 |
| 20260502222236 | 16 | 43 | 1.6 | 1.6 | 0.00 | 0.00 | 0.00 | 50 | 1017.5 |
| 20260502221731 | 16 | 50 | 1.6 | 3.2 | 0.00 | 0.00 | 0.00 | 52 | 1017.6 |
| 20260502221228 | 16 | 40 | 3.2 | 4.8 | 0.00 | 0.00 | 0.00 | 50 | 1017.4 |
| 20260502220725 | 16 | 51 | 3.2 | 6.4 | 0.00 | 0.00 | 0.00 | 50 | 1017.6 |
| 20260502220221 | 17 | 187 | 3.2 | 3.2 | 0.00 | 0.00 | 0.00 | 51 | 1017.4 |
| 20260502215718 | 17 | 54 | 1.6 | 3.2 | 0.00 | 0.00 | 0.00 | 49 | 1017.3 |
| 20260502215215 | 17 | 52 | 1.6 | 1.6 | 0.00 | 0.00 | 0.00 | 48 | 1017.2 |
| 20260502214712 | 17 | 54 | 3.2 | 3.2 | 0.00 | 0.00 | 0.00 | 48 | 1017.0 |
| 20260502214209 | 18 | 46 | 1.6 | 1.6 | 0.00 | 0.00 | 0.00 | 47 | 1016.9 |
| 20260502213707 | 18 | 20 | 1.6 | 1.6 | 0.00 | 0.00 | 0.00 | 46 | 1016.8 |
| 20260502213204 | 18 | 40 | 1.6 | 3.2 | 0.00 | 0.00 | 0.00 | 43 | 1016.8 |
| 20260502212702 | 19 | 17 | 4.8 | 6.4 | 0.00 | 0.00 | 0.00 | 38 | 1016.7 |
| 20260502212200 | 20 | 68 | 1.6 | 1.6 | 0.00 | 0.00 | 0.00 | 33 | 1016.6 |
| 20260502211656 | 19 | 65 | 0.0 | 1.6 | 0.00 | 0.00 | 0.00 | 34 | 1016.5 |
| 20260502211153 | 19 | 47 | 1.6 | 1.6 | 0.00 | 0.00 | 0.00 | 37 | 1016.5 |
| 20260502210650 | 20 | 348 | 3.2 | 4.8 | 0.00 | 0.00 | 0.00 | 33 | 1016.5 |
| 20260502210147 | 20 | 35 | 3.2 | 3.2 | 0.00 | 0.00 | 0.00 | 36 | 1016.4 |
| 20260502205644 | 20 | 68 | 0.0 | 1.6 | 0.00 | 0.00 | 0.00 | 35 | 1016.4 |
| 20260502205140 | 19 | 92 | 4.8 | 6.4 | 0.00 | 0.00 | 0.00 | 35 | 1016.6 |
| 20260502204637 | 20 | 35 | 3.2 | 3.2 | 0.00 | 0.00 | 0.00 | 33 | 1016.5 |
| 20260502204135 | 20 | 46 | 1.6 | 3.2 | 0.00 | 0.00 | 0.00 | 33 | 1016.6 |
| 20260502203632 | 20 | 45 | 0.0 | 0.0 | 0.00 | 0.00 | 0.00 | 36 | 1016.5 |
| 20260502203130 | 20 | 42 | 0.0 | 0.0 | 0.00 | 0.00 | 0.00 | 34 | 1016.7 |
| 20260502202625 | 21 | 41 | 1.6 | 1.6 | 0.00 | 0.00 | 0.00 | 34 | 1016.4 |
| 20260502202123 | 21 | 77 | 3.2 | 6.4 | 0.00 | 0.00 | 0.00 | 38 | 1016.7 |
| 20260502201619 | 21 | 118 | 3.2 | 3.2 | 0.00 | 0.00 | 0.00 | 33 | 1016.8 |
| 20260502201116 | 21 | 64 | 4.8 | 6.4 | 0.00 | 0.00 | 0.00 | 31 | 1016.5 |
| 20260502200612 | 21 | 26 | 6.4 | 6.4 | 0.00 | 0.00 | 0.00 | 33 | 1016.7 |
| 20260502200110 | 21 | 26 | 1.6 | 3.2 | 0.00 | 0.00 | 0.00 | 35 | 1016.5 |
| 20260502195608 | 20 | 62 | 0.0 | 1.6 | 0.00 | 0.00 | 0.00 | 33 | 1016.6 |
| 20260502195103 | 21 | 50 | 1.6 | 3.2 | 0.00 | 0.00 | 0.00 | 34 | 1016.6 |
| 20260502194600 | 21 | 130 | 1.6 | 1.6 | 0.00 | 0.00 | 0.00 | 33 | 1016.5 |
| 20260502194056 | 21 | 44 | 3.2 | 3.2 | 0.00 | 0.00 | 0.00 | 33 | 1016.4 |
| 20260502193553 | 21 | 68 | 1.6 | 1.6 | 0.00 | 0.00 | 0.00 | 34 | 1016.5 |
| 20260502193050 | 20 | 10 | 1.6 | 3.2 | 0.00 | 0.00 | 0.00 | 39 | 1016.6 |
| 20260502192545 | 20 | 44 | 1.6 | 1.6 | 0.00 | 0.00 | 0.00 | 35 | 1016.4 |
| 20260502192043 | 21 | 107 | 6.4 | 11.3 | 0.00 | 0.00 | 0.00 | 32 | 1016.7 |
| 20260502191540 | 20 | 52 | 3.2 | 3.2 | 0.00 | 0.00 | 0.00 | 34 | 1016.5 |
| 20260502191038 | 21 | 8 | 6.4 | 6.4 | 0.00 | 0.00 | 0.00 | 33 | 1016.4 |
| 20260502190536 | 21 | 40 | 0.0 | 0.0 | 0.00 | 0.00 | 0.00 | 36 | 1016.5 |
| 20260502190033 | 20 | 76 | 4.8 | 6.4 | 0.00 | 0.00 | 0.00 | 34 | 1016.5 |
| 20260502185533 | 20 | 39 | 3.2 | 4.8 | 0.00 | 0.00 | 0.00 | 33 | 1016.5 |
| 20260502185030 | 20 | 63 | 1.6 | 1.6 | 0.00 | 0.00 | 0.00 | 34 | 1016.6 |
| 20260502184526 | 20 | 49 | 0.0 | 1.6 | 0.00 | 0.00 | 0.00 | 35 | 1016.6 |
| 20260502184022 | 20 | 288 | 6.4 | 9.7 | 0.00 | 0.00 | 0.00 | 39 | 1016.6 |
| 20260502183518 | 20 | 46 | 3.2 | 4.8 | 0.00 | 0.00 | 0.00 | 35 | 1016.8 |
| 20260502183015 | 19 | 288 | 9.7 | 17.7 | 0.00 | 0.00 | 0.00 | 38 | 1016.7 |
| 20260502182509 | 18 | 50 | 0.0 | 0.0 | 0.00 | 0.00 | 0.00 | 44 | 1016.9 |
| 20260502182006 | 18 | 74 | 3.2 | 3.2 | 0.00 | 0.00 | 0.00 | 41 | 1016.9 |
| 20260502181504 | 19 | 42 | 0.0 | 0.0 | 0.00 | 0.00 | 0.00 | 38 | 1016.6 |
| 20260502181003 | 20 | 240 | 4.8 | 4.8 | 0.00 | 0.00 | 0.00 | 41 | 1016.8 |
| 20260502180459 | 18 | 34 | 0.0 | 1.6 | 0.00 | 0.00 | 0.00 | 41 | 1016.7 |
| 20260502170418 | 18 | 324 | 4.8 | 4.8 | 0.00 | 0.00 | 0.00 | 43 | 1017.4 |
| 20260502163901 | 18 | 320 | 3.2 | 4.8 | 0.00 | 0.00 | 0.00 | 41 | 1017.8 |
| 20260502163357 | 17 | 4 | 3.2 | 3.2 | 0.00 | 0.00 | 0.00 | 46 | 1017.9 |
| 20260502162855 | 17 | 22 | 1.6 | 3.2 | 0.00 | 0.00 | 0.00 | 45 | 1018.0 |
| 20260502162351 | 17 | 271 | 6.4 | 6.4 | 0.00 | 0.00 | 0.00 | 40 | 1018.0 |
| 20260502161849 | 18 | 305 | 8.0 | 11.3 | 0.00 | 0.00 | 0.00 | 39 | 1018.0 |
| 20260502161345 | 18 | 330 | 3.2 | 4.8 | 0.00 | 0.00 | 0.00 | 41 | 1018.0 |
| 20260502160843 | 17 | 33 | 3.2 | 3.2 | 0.00 | 0.00 | 0.00 | 43 | 1018.0 |
| 20260502160341 | 17 | 24 | 3.2 | 3.2 | 0.00 | 0.00 | 0.00 | 43 | 1017.9 |
| 20260502152316 | 18 | 56 | 1.6 | 1.6 | 0.00 | 0.00 | 0.00 | 46 | 1018.2 |
| 20260502151814 | 18 | 168 | 1.6 | 1.6 | 0.00 | 0.00 | 0.00 | 45 | 1018.1 |
| 20260502151310 | 17 | 31 | 1.6 | 3.2 | 0.00 | 0.00 | 0.00 | 41 | 1018.1 |
| 20260502150808 | 17 | 235 | 1.6 | 3.2 | 0.00 | 0.00 | 0.00 | 46 | 1018.1 |
| 20260502150304 | 17 | 300 | 6.4 | 6.4 | 0.00 | 0.00 | 0.00 | 46 | 1018.2 |
| 20260502130653 | 12 | 62 | 0.0 | 0.0 | 0.00 | 0.00 | 0.00 | 73 | 1017.9 |
| 20260502130150 | 11 | 53 | 0.0 | 0.0 | 0.00 | 0.00 | 0.00 | 74 | 1017.9 |
| 20260502123636 | 7 | 54 | 0.0 | 0.0 | 0.00 | 0.00 | 0.00 | 97 | 1017.9 |
| 20260502123133 | 7 | 54 | 0.0 | 0.0 | 0.00 | 0.00 | 0.00 | 98 | 1017.7 |
| 20260502122629 | 7 | 54 | 0.0 | 0.0 | 0.00 | 0.00 | 0.00 | 99 | 1017.7 |
| 20260502122126 | 6 | 54 | 0.0 | 0.0 | 0.00 | 0.00 | 0.00 | 98 | 1017.6 |
| 20260502121624 | 6 | 54 | 0.0 | 0.0 | 0.00 | 0.00 | 0.00 | 98 | 1017.6 |
| 20260502121121 | 5 | 54 | 0.0 | 0.0 | 0.00 | 0.00 | 0.00 | 98 | 1017.6 |
| 20260502120617 | 5 | 54 | 0.0 | 0.0 | 0.00 | 0.00 | 0.00 | 98 | 1017.6 |
| 20260502120114 | 5 | 54 | 0.0 | 0.0 | 0.00 | 0.00 | 0.00 | 98 | 1017.5 |
| 20260502115613 | 5 | 54 | 0.0 | 0.0 | 0.00 | 0.00 | 0.00 | 98 | 1017.4 |
| 20260502115108 | 5 | 54 | 0.0 | 0.0 | 0.00 | 0.00 | 0.00 | 98 | 1017.5 |
| 20260502114604 | 4 | 54 | 0.0 | 0.0 | 0.00 | 0.00 | 0.00 | 98 | 1017.4 |
| 20260502114102 | 4 | 54 | 0.0 | 0.0 | 0.00 | 0.00 | 0.00 | 97 | 1017.4 |
| 20260502113559 | 3 | 54 | 0.0 | 0.0 | 0.00 | 0.00 | 0.00 | 97 | 1017.1 |
| 20260502113057 | 3 | 54 | 0.0 | 0.0 | 0.00 | 0.00 | 0.00 | 97 | 1017.3 |
| 20260502112555 | 3 | 54 | 0.0 | 0.0 | 0.00 | 0.00 | 0.00 | 97 | 1017.1 |
| 20260502112052 | 3 | 54 | 0.0 | 0.0 | 0.00 | 0.00 | 0.00 | 97 | 1017.1 |
| 20260502111549 | 4 | 54 | 0.0 | 0.0 | 0.00 | 0.00 | 0.00 | 97 | 1017.0 |
| 20260502111047 | 4 | 54 | 0.0 | 0.0 | 0.00 | 0.00 | 0.00 | 97 | 1017.1 |
| 20260502110544 | 4 | 54 | 0.0 | 0.0 | 0.00 | 0.00 | 0.00 | 97 | 1016.9 |
| 20260502110042 | 4 | 54 | 0.0 | 0.0 | 0.00 | 0.00 | 0.00 | 96 | 1017.1 |
| 20260502105539 | 4 | 54 | 0.0 | 0.0 | 0.00 | 0.00 | 0.00 | 96 | 1016.9 |
| 20260502105037 | 4 | 54 | 0.0 | 0.0 | 0.00 | 0.00 | 0.00 | 96 | 1017.1 |
| 20260502104533 | 5 | 54 | 0.0 | 0.0 | 0.00 | 0.00 | 0.00 | 96 | 1017.0 |
| 20260502104031 | 5 | 54 | 0.0 | 0.0 | 0.00 | 0.00 | 0.00 | 96 | 1017.0 |
| 20260502103529 | 5 | 54 | 0.0 | 0.0 | 0.00 | 0.00 | 0.00 | 96 | 1017.0 |
| 20260502103027 | 4 | 54 | 0.0 | 0.0 | 0.00 | 0.00 | 0.00 | 96 | 1016.9 |
| 20260502102522 | 4 | 54 | 0.0 | 0.0 | 0.00 | 0.00 | 0.00 | 96 | 1016.8 |
| 20260502102020 | 4 | 54 | 0.0 | 0.0 | 0.00 | 0.00 | 0.00 | 95 | 1016.9 |
| 20260502101518 | 4 | 54 | 0.0 | 0.0 | 0.00 | 0.00 | 0.00 | 95 | 1016.9 |
| 20260502101016 | 4 | 54 | 0.0 | 0.0 | 0.00 | 0.00 | 0.00 | 95 | 1016.8 |
| 20260502100514 | 5 | 54 | 0.0 | 0.0 | 0.00 | 0.00 | 0.00 | 94 | 1016.8 |
| 20260502091448 | 5 | 54 | 0.0 | 0.0 | 0.00 | 0.00 | 0.00 | 91 | 1016.5 |
| 20260502090946 | 5 | 54 | 0.0 | 0.0 | 0.00 | 0.00 | 0.00 | 90 | 1016.6 |
| 20260502090442 | 5 | 54 | 0.0 | 0.0 | 0.00 | 0.00 | 0.00 | 89 | 1016.5 |
| 20260502071337 | 6 | 54 | 0.0 | 0.0 | 0.00 | 0.00 | 0.00 | 83 | 1017.1 |
| 20260502070835 | 6 | 54 | 0.0 | 0.0 | 0.00 | 0.00 | 0.00 | 82 | 1017.3 |
| 20260502070332 | 6 | 54 | 0.0 | 0.0 | 0.00 | 0.00 | 0.00 | 80 | 1017.1 |
| 20260502065831 | 6 | 54 | 0.0 | 0.0 | 0.00 | 0.00 | 0.00 | 80 | 1017.2 |
| 20260502065329 | 6 | 54 | 0.0 | 0.0 | 0.00 | 0.00 | 0.00 | 79 | 1017.3 |
| 20260502064827 | 6 | 54 | 0.0 | 0.0 | 0.00 | 0.00 | 0.00 | 78 | 1017.2 |
| 20260502064324 | 6 | 54 | 0.0 | 0.0 | 0.00 | 0.00 | 0.00 | 78 | 1017.1 |
| 20260502063822 | 6 | 54 | 0.0 | 0.0 | 0.00 | 0.00 | 0.00 | 79 | 1017.2 |
| 20260502063319 | 6 | 54 | 0.0 | 0.0 | 0.00 | 0.00 | 0.00 | 79 | 1017.4 |
| 20260502062816 | 7 | 54 | 0.0 | 0.0 | 0.00 | 0.00 | 0.00 | 78 | 1017.4 |
| 20260502062314 | 7 | 54 | 0.0 | 0.0 | 0.00 | 0.00 | 0.00 | 78 | 1017.5 |
| 20260502061812 | 7 | 54 | 0.0 | 0.0 | 0.00 | 0.00 | 0.00 | 77 | 1017.4 |
| 20260502061310 | 7 | 54 | 0.0 | 0.0 | 0.00 | 0.00 | 0.00 | 77 | 1017.7 |
| 20260502060805 | 7 | 54 | 0.0 | 0.0 | 0.00 | 0.00 | 0.00 | 77 | 1017.7 |
| 20260502060300 | 6 | 54 | 0.0 | 0.0 | 0.00 | 0.00 | 0.00 | 77 | 1017.6 |
| 20260502055759 | 6 | 54 | 0.0 | 0.0 | 0.00 | 0.00 | 0.00 | 79 | 1017.7 |
| 20260502055256 | 6 | 54 | 0.0 | 0.0 | 0.00 | 0.00 | 0.00 | 78 | 1017.6 |
| 20260502054755 | 6 | 54 | 0.0 | 0.0 | 0.00 | 0.00 | 0.00 | 76 | 1017.8 |
| 20260502054253 | 7 | 54 | 0.0 | 0.0 | 0.00 | 0.00 | 0.00 | 75 | 1017.6 |
| 20260502053750 | 7 | 54 | 0.0 | 0.0 | 0.00 | 0.00 | 0.00 | 75 | 1017.5 |
| 20260502053247 | 7 | 54 | 0.0 | 0.0 | 0.00 | 0.00 | 0.00 | 75 | 1017.5 |
| 20260502052745 | 7 | 54 | 0.0 | 0.0 | 0.00 | 0.00 | 0.00 | 75 | 1017.4 |
| 20260502052243 | 7 | 54 | 0.0 | 0.0 | 0.00 | 0.00 | 0.00 | 75 | 1017.3 |
| 20260502051740 | 7 | 54 | 0.0 | 0.0 | 0.00 | 0.00 | 0.00 | 75 | 1017.0 |
| 20260502051239 | 7 | 54 | 0.0 | 0.0 | 0.00 | 0.00 | 0.00 | 73 | 1017.0 |
| 20260502050734 | 7 | 54 | 0.0 | 0.0 | 0.00 | 0.00 | 0.00 | 72 | 1017.0 |
| 20260502050231 | 7 | 54 | 0.0 | 0.0 | 0.00 | 0.00 | 0.00 | 72 | 1017.1 |
| 20260502045728 | 7 | 54 | 0.0 | 0.0 | 0.00 | 0.00 | 0.00 | 72 | 1017.3 |
| 20260502045225 | 7 | 54 | 0.0 | 0.0 | 0.00 | 0.00 | 0.00 | 72 | 1017.1 |
| 20260502044722 | 7 | 54 | 0.0 | 0.0 | 0.00 | 0.00 | 0.00 | 71 | 1017.0 |
| 20260502044218 | 8 | 54 | 0.0 | 0.0 | 0.00 | 0.00 | 0.00 | 71 | 1016.9 |
| 20260502043715 | 8 | 54 | 0.0 | 0.0 | 0.00 | 0.00 | 0.00 | 69 | 1016.9 |
| 20260502043213 | 8 | 54 | 0.0 | 0.0 | 0.00 | 0.00 | 0.00 | 69 | 1017.0 |
| 20260502042712 | 8 | 54 | 0.0 | 0.0 | 0.00 | 0.00 | 0.00 | 67 | 1017.1 |
| 20260502042210 | 8 | 54 | 0.0 | 0.0 | 0.00 | 0.00 | 0.00 | 66 | 1016.9 |
| 20260502041708 | 9 | 54 | 0.0 | 0.0 | 0.00 | 0.00 | 0.00 | 64 | 1017.0 |
| 20260502041204 | 9 | 54 | 0.0 | 0.0 | 0.00 | 0.00 | 0.00 | 63 | 1017.0 |
| 20260502040701 | 10 | 54 | 0.0 | 0.0 | 0.00 | 0.00 | 0.00 | 62 | 1017.0 |
| 20260502040158 | 10 | 54 | 0.0 | 0.0 | 0.00 | 0.00 | 0.00 | 63 | 1017.3 |
| 20260502035654 | 10 | 54 | 0.0 | 0.0 | 0.00 | 0.00 | 0.00 | 62 | 1017.3 |
| 20260502035151 | 10 | 54 | 0.0 | 0.0 | 0.00 | 0.00 | 0.00 | 61 | 1017.4 |
| 20260502034649 | 10 | 54 | 0.0 | 0.0 | 0.00 | 0.00 | 0.00 | 59 | 1017.5 |
| 20260502034147 | 10 | 54 | 0.0 | 0.0 | 0.00 | 0.00 | 0.00 | 59 | 1017.4 |
| 20260502033645 | 10 | 54 | 0.0 | 0.0 | 0.00 | 0.00 | 0.00 | 59 | 1017.8 |
| 20260502033142 | 10 | 54 | 0.0 | 0.0 | 0.00 | 0.00 | 0.00 | 59 | 1017.8 |
| 20260502032638 | 10 | 54 | 0.0 | 0.0 | 0.00 | 0.00 | 0.00 | 58 | 1017.9 |
| 20260502032135 | 10 | 54 | 0.0 | 0.0 | 0.00 | 0.00 | 0.00 | 58 | 1017.9 |
| 20260502031633 | 10 | 54 | 0.0 | 0.0 | 0.00 | 0.00 | 0.00 | 57 | 1017.9 |
| 20260502031130 | 11 | 54 | 0.0 | 0.0 | 0.00 | 0.00 | 0.00 | 58 | 1018.0 |
| 20260502030629 | 11 | 54 | 0.0 | 0.0 | 0.00 | 0.00 | 0.00 | 56 | 1018.0 |
| 20260502030127 | 11 | 54 | 0.0 | 0.0 | 0.00 | 0.00 | 0.00 | 55 | 1018.0 |
| 20260502025623 | 11 | 54 | 0.0 | 0.0 | 0.00 | 0.00 | 0.00 | 54 | 1018.1 |
| 20260502025122 | 11 | 54 | 0.0 | 0.0 | 0.00 | 0.00 | 0.00 | 53 | 1018.1 |
| 20260502024619 | 11 | 54 | 0.0 | 0.0 | 0.00 | 0.00 | 0.00 | 53 | 1018.2 |
| 20260502024117 | 12 | 54 | 0.0 | 0.0 | 0.00 | 0.00 | 0.00 | 53 | 1018.1 |
| 20260502023615 | 12 | 54 | 0.0 | 0.0 | 0.00 | 0.00 | 0.00 | 51 | 1018.2 |
| 20260502023112 | 12 | 54 | 0.0 | 0.0 | 0.00 | 0.00 | 0.00 | 52 | 1018.1 |
| 20260502022608 | 12 | 54 | 0.0 | 0.0 | 0.00 | 0.00 | 0.00 | 51 | 1018.2 |
| 20260502022106 | 12 | 54 | 0.0 | 0.0 | 0.00 | 0.00 | 0.00 | 52 | 1018.0 |
| 20260502021603 | 12 | 54 | 0.0 | 0.0 | 0.00 | 0.00 | 0.00 | 51 | 1017.9 |
| 20260502021100 | 12 | 54 | 0.0 | 0.0 | 0.00 | 0.00 | 0.00 | 50 | 1017.9 |
| 20260502020557 | 12 | 54 | 0.0 | 0.0 | 0.00 | 0.00 | 0.00 | 50 | 1018.0 |
| 20260502020054 | 12 | 53 | 0.0 | 0.0 | 0.00 | 0.00 | 0.00 | 53 | 1018.1 |
| 20260502015552 | 12 | 53 | 0.0 | 0.0 | 0.00 | 0.00 | 0.00 | 52 | 1017.8 |
| 20260502015048 | 12 | 53 | 0.0 | 0.0 | 0.00 | 0.00 | 0.00 | 52 | 1017.8 |
| 20260502014545 | 12 | 54 | 0.0 | 0.0 | 0.00 | 0.00 | 0.00 | 51 | 1017.4 |
| 20260502014042 | 12 | 52 | 0.0 | 0.0 | 0.00 | 0.00 | 0.00 | 51 | 1017.5 |
| 20260502013537 | 12 | 52 | 0.0 | 0.0 | 0.00 | 0.00 | 0.00 | 51 | 1017.4 |
| 20260502013034 | 13 | 52 | 0.0 | 0.0 | 0.00 | 0.00 | 0.00 | 51 | 1017.3 |
| 20260502012532 | 13 | 52 | 0.0 | 0.0 | 0.00 | 0.00 | 0.00 | 51 | 1017.4 |
| 20260502012029 | 13 | 34 | 0.0 | 1.6 | 0.00 | 0.00 | 0.00 | 46 | 1017.4 |
| 20260502011526 | 13 | 56 | 0.0 | 0.0 | 0.00 | 0.00 | 0.00 | 48 | 1017.1 |
| 20260502011022 | 13 | 59 | 0.0 | 0.0 | 0.00 | 0.00 | 0.00 | 49 | 1017.0 |
| 20260502010520 | 13 | 56 | 0.0 | 0.0 | 0.00 | 0.00 | 0.00 | 49 | 1017.0 |
| 20260502010016 | 13 | 55 | 0.0 | 0.0 | 0.00 | 0.00 | 0.00 | 48 | 1016.7 |
| 20260502005514 | 13 | 56 | 0.0 | 0.0 | 0.00 | 0.00 | 0.00 | 50 | 1016.6 |
| 20260502005011 | 13 | 54 | 0.0 | 0.0 | 0.00 | 0.00 | 0.00 | 45 | 1016.5 |
| 20260502004507 | 14 | 51 | 0.0 | 0.0 | 0.00 | 0.00 | 0.00 | 46 | 1016.8 |
| 20260502004004 | 14 | 54 | 0.0 | 0.0 | 0.00 | 0.00 | 0.00 | 44 | 1016.4 |
| 20260502003501 | 14 | 54 | 0.0 | 0.0 | 0.00 | 0.00 | 0.00 | 41 | 1016.6 |
| 20260502002957 | 15 | 54 | 0.0 | 0.0 | 0.00 | 0.00 | 0.00 | 41 | 1016.4 |
| 20260502002455 | 15 | 54 | 0.0 | 0.0 | 0.00 | 0.00 | 0.00 | 41 | 1016.3 |
| 20260502001952 | 15 | 55 | 0.0 | 0.0 | 0.00 | 0.00 | 0.00 | 41 | 1016.4 |
| 20260502001449 | 15 | 59 | 0.0 | 1.6 | 0.00 | 0.00 | 0.00 | 43 | 1015.8 |
| 20260502000947 | 15 | 54 | 0.0 | 0.0 | 0.00 | 0.00 | 0.00 | 40 | 1015.6 |
| 20260502000446 | 15 | 52 | 0.0 | 0.0 | 0.00 | 0.00 | 0.00 | 39 | 1015.7 |
| 20260501235941 | 15 | 56 | 0.0 | 0.0 | 0.00 | 0.00 | 0.00 | 41 | 1015.7 |
| 20260501235437 | 16 | 55 | 0.0 | 0.0 | 0.00 | 0.00 | 0.00 | 39 | 1015.7 |
| 20260501234932 | 16 | 48 | 0.0 | 0.0 | 0.00 | 0.00 | 0.00 | 37 | 1015.7 |